Погода в Мальцево

Россия / Курганская область     56°14′24″N   63°26′00″E
темп.,
°C
ветер,
м/с
пор.,
м/с
влажн.,
%
обл.,
%
осадки,
мм/ч
давл.,
гПа
погр.,
м
3 марта, ср
ср323:00−14ю51094100 0.0 1004281
02:00−12ю4895100 0.3 1002223
05:00−10ююз3796100 0.3 1002164
08:00−10ююз41095100 0.1 1000280
11:00−7юз61092100 0.4 1000557
14:00−4юз698991 0.0 1000500
17:00−4ююз5109169 0.0 1000385
20:00−7ююз499376 0.0 1000153
4 марта, чт
чт423:00−7ююз359388 0.0 100084
02:00−8ююз349498 0.0 99862
05:00−7юз239598 0.1 99850
08:00−10юз349419 0.0 99740
11:00−6зюз479218 0.0 996299
14:00−4зюз588995 0.0 996656
17:00−4з5108597 0.3 997735
20:00−10зюз5108866 0.0 999183
5 марта, пт
пт523:00−12юз478933 0.0 999100
02:00−11ююз4119286 0.0 998241
05:00−7ююз6129593 1.1 996518
08:00−6зюз81685100 1.0 996600
11:00−4з7128565 1.0 999705
14:00−2юз698584 0.0 1000734
17:00−2юз4108692 0.0 1001445
20:00−3юз2391100 0.0 100052
6 марта, сб
сб623:00−4зюз2294100 0.3 100121
02:00−6з1197100 0.2 100021
05:00−5ссз5996100 1.8 1000327
08:00−8зсз61190100 0.7 1003440
11:00−11з7128550 0.7 1006581
14:00−9з7118428 0.0 1008700
17:00−10з5108662 0.0 1010667
20:00−15зюз449295 0.0 101173
7 марта, вс
вс723:00−16з239298 0.0 101120
02:00−16зсз1191100 0.0 101020
05:00−16с0190100 0.0 100920
08:00−17с2289100 0.0 100821
11:00−12сз238497 0.0 1008209
14:00−10з238194 0.0 1008400
17:00−10зюз249147 0.0 1008121
20:00−15юз34910 0.0 100924